Regional Weather Roundup
Issued by NWS Goodland, KS

Home | Current Version | Previous Version | Text Only | Print | Product List | Glossary Off
Versions: 1 2 3 4 5 6 7 8 9 10 11 12 13 14 15 16 17 18 19 20 21 22 23 24 25 26 27 28 29 30 31 32 33 34 35 36 37 38 39 40 41 42 43 44 45 46 47 48 49 50

071
ASUS43 KGLD 241759
RWRGLD

GOODLAND FORECAST AREA HOURLY WEATHER ROUNDUP
NATIONAL WEATHER SERVICE GOODLAND KS
1200 PM MDT WED MAY 24 2017

...OFFICIAL OBSERVATIONS...

CITY           SKY/WX    TMP DP  RH WIND       PRES   REMARKS
GOODLAND KS    SUNNY     64  42  44 S10G17    29.77F
HILL CITY KS   SUNNY     60  40  47 VRB3      29.79F
IMPERIAL NEB   SUNNY     64  41  42 S10       29.74F
MCCOOK NEB     SUNNY     63  36  36 SW6       29.77F
AKRON CO       SUNNY     70  40  33 MISG      29.73F
BURLINGTON CO  SUNNY     67  42  40 SW14      29.78F
LIMON CO       SUNNY     73  37  27 MISG      29.78F
$$

...UNOFFICIAL OBSERVATIONS...

CITY           SKY/WX    TMP DP  RH WIND       PRES   REMARKS
LENORA KS        N/A     59  32  36 MISG        N/A
NORTON KS      SUNNY     59  37  44 CALM      29.78F
SHARON SPRINGS   N/A     65  45  48 SE12        N/A
TRENTON NEB      N/A     64  32  30 CALM        N/A
KIT CARSON CO    N/A     66  43  43 MISG        N/A
YUMA CO        FAIR      68  41  37 S8        29.72F
$$




USA.gov is the U.S. government's official web portal to all federal, state and local government web resources and services.